• In Czech Republic
  • List of Countries
  • For 7 days
  • Water Temperature
  • Satellite Maps
  • Weather Map
  • Weather Widgets
  • user-avatar
    Login

    Hourly Weather Zhezqazghan

    Today, 23 June, Saturday

    Time Temperature Precipitation Wind Pressure Humidity
    00:00 +30°C° 0 mm 2 mps 735 mmHg 29%
    01:00 +29°C° 0 mm 2 mps 735 mmHg 29%
    02:00 +29°C° 0 mm 2 mps 735 mmHg 30%
    03:00 +29°C° 0 mm 2 mps 735 mmHg 30%
    04:00 +29°C° 0 mm 2 mps 735 mmHg 30%
    05:00 +29°C° 0 mm 3 mps 736 mmHg 29%
    06:00 +30°C° 0 mm 3 mps 736 mmHg 27%
    07:00 +32°C° 0 mm 4 mps 736 mmHg 26%
    08:00 +33°C° 0 mm 5 mps 736 mmHg 23%
    09:00 +34°C° 0 mm 5 mps 736 mmHg 21%
    10:00 +36°C° 0 mm 6 mps 736 mmHg 18%
    11:00 +36°C° 0 mm 7 mps 736 mmHg 17%
    12:00 +38°C° 0 mm 7 mps 736 mmHg 15%
    13:00 +38°C° 0 mm 7 mps 736 mmHg 14%
    14:00 +38°C° 0 mm 7 mps 736 mmHg 14%
    15:00 +38°C° 0 mm 7 mps 735 mmHg 14%
    16:00 +38°C° 0 mm 6 mps 735 mmHg 14%
    17:00 +35°C° 0 mm 5 mps 735 mmHg 15%
    18:00 +34°C° 0 mm 4 mps 735 mmHg 16%
    19:00 +33°C° 0 mm 3 mps 735 mmHg 17%
    20:00 +33°C° 0 mm 3 mps 735 mmHg 19%
    21:00 +31°C° 0 mm 3 mps 735 mmHg 20%
    22:00 +30°C° 0 mm 3 mps 736 mmHg 22%
    23:00 +29°C° 0 mm 4 mps 736 mmHg 24%

    Tomorrow, 24 June, Sunday

    Time Temperature Precipitation Wind Pressure Humidity
    00:00 +28°C° 0 mm 4 mps 735 mmHg 26%
    01:00 +27°C° 0 mm 4 mps 735 mmHg 28%
    02:00 +27°C° 0 mm 4 mps 736 mmHg 30%
    03:00 +26°C° 0 mm 4 mps 736 mmHg 32%
    04:00 +26°C° 0 mm 4 mps 736 mmHg 35%
    05:00 +27°C° 0 mm 4 mps 736 mmHg 32%
    06:00 +28°C° 0 mm 4 mps 736 mmHg 30%
    07:00 +29°C° 0 mm 4 mps 737 mmHg 27%
    08:00 +30°C° 0 mm 5 mps 737 mmHg 26%
    09:00 +32°C° 0 mm 5 mps 737 mmHg 24%
    10:00 +33°C° 0 mm 6 mps 737 mmHg 23%
    11:00 +33°C° 0 mm 6 mps 737 mmHg 21%
    12:00 +34°C° 0 mm 6 mps 737 mmHg 20%
    13:00 +34°C° 0 mm 6 mps 737 mmHg 19%
    14:00 +34°C° 0 mm 6 mps 737 mmHg 20%
    15:00 +34°C° 0 mm 7 mps 738 mmHg 20%
    16:00 +34°C° 0 mm 7 mps 738 mmHg 21%
    17:00 +33°C° 0 mm 6 mps 738 mmHg 23%
    18:00 +32°C° 0 mm 6 mps 738 mmHg 25%
    19:00 +30°C° 0 mm 5 mps 739 mmHg 26%
    20:00 +30°C° 0 mm 5 mps 739 mmHg 28%
    21:00 +29°C° 0 mm 4 mps 739 mmHg 29%
    22:00 +28°C° 0 mm 3 mps 740 mmHg 30%
    23:00 +28°C° 0 mm 3 mps 740 mmHg 32%

    Day after tomorrow, 25 June, Monday

    Time Temperature Precipitation Wind Pressure Humidity
    00:00 +27°C° 0 mm 3 mps 740 mmHg 33%
    01:00 +26°C° 0 mm 3 mps 740 mmHg 35%
    02:00 +26°C° 0 mm 2 mps 740 mmHg 36%
    03:00 +25°C° 0 mm 2 mps 740 mmHg 38%
    04:00 +25°C° 0 mm 2 mps 740 mmHg 39%
    05:00 +26°C° 0 mm 3 mps 740 mmHg 36%
    06:00 +27°C° 0 mm 3 mps 740 mmHg 33%
    07:00 +29°C° 0 mm 4 mps 741 mmHg 29%
    08:00 +29°C° 0 mm 4 mps 741 mmHg 28%
    09:00 +30°C° 0 mm 5 mps 741 mmHg 27%
    10:00 +32°C° 0 mm 5 mps 741 mmHg 25%
    11:00 +32°C° 0 mm 5 mps 741 mmHg 24%
    12:00 +33°C° 0 mm 6 mps 741 mmHg 23%
    13:00 +33°C° 0 mm 6 mps 741 mmHg 22%
    14:00 +33°C° 0 mm 6 mps 740 mmHg 22%
    15:00 +33°C° 0 mm 6 mps 740 mmHg 21%
    16:00 +33°C° 0 mm 6 mps 740 mmHg 21%
    17:00 +32°C° 0 mm 6 mps 740 mmHg 22%
    18:00 +32°C° 0 mm 5 mps 740 mmHg 24%
    19:00 +30°C° 0 mm 5 mps 741 mmHg 25%
    20:00 +29°C° 0 mm 4 mps 741 mmHg 27%
    21:00 +28°C° 0 mm 4 mps 741 mmHg 30%
    22:00 +27°C° 0 mm 3 mps 741 mmHg 32%
    23:00 +27°C° 0 mm 2 mps 741 mmHg 34%

    26 June, Tuesday

    Time Temperature Precipitation Wind Pressure Humidity
    00:00 +26°C° 0 mm 2 mps 741 mmHg 35%
    01:00 +25°C° 0 mm 2 mps 740 mmHg 37%
    02:00 +25°C° 0 mm 2 mps 741 mmHg 39%
    03:00 +25°C° 0 mm 2 mps 741 mmHg 40%
    04:00 +24°C° 0 mm 2 mps 741 mmHg 41%
    05:00 +25°C° 0 mm 2 mps 741 mmHg 38%
    06:00 +27°C° 0 mm 3 mps 741 mmHg 36%
    07:00 +28°C° 0 mm 3 mps 741 mmHg 33%
    08:00 +29°C° 0 mm 3 mps 741 mmHg 30%
    09:00 +30°C° 0 mm 4 mps 741 mmHg 28%
    10:00 +32°C° 0 mm 4 mps 741 mmHg 26%
    11:00 +32°C° 0 mm 4 mps 741 mmHg 23%
    12:00 +33°C° 0 mm 5 mps 741 mmHg 21%
    13:00 +34°C° 0 mm 5 mps 740 mmHg 19%
    14:00 +34°C° 0 mm 5 mps 740 mmHg 19%
    15:00 +34°C° 0 mm 5 mps 740 mmHg 18%
    16:00 +35°C° 0 mm 5 mps 740 mmHg 18%
    17:00 +34°C° 0 mm 4 mps 740 mmHg 20%
    18:00 +33°C° 0 mm 3 mps 739 mmHg 23%
    19:00 +31°C° 0 mm 2 mps 739 mmHg 25%
    20:00 +31°C° 0 mm 2 mps 739 mmHg 25%
    21:00 +30°C° 0 mm 3 mps 739 mmHg 25%
    22:00 +29°C° 0 mm 3 mps 739 mmHg 25%
    23:00 +29°C° 0 mm 3 mps 739 mmHg 26%

    27 June, Wednesday

    Time Temperature Precipitation Wind Pressure Humidity
    00:00 +28°C° 0 mm 3 mps 739 mmHg 26%
    01:00 +28°C° 0 mm 3 mps 738 mmHg 27%
    02:00 +27°C° 0 mm 3 mps 738 mmHg 28%
    03:00 +27°C° 0 mm 3 mps 738 mmHg 29%
    04:00 +26°C° 0 mm 3 mps 738 mmHg 30%
    05:00 +28°C° 0 mm 3 mps 739 mmHg 29%
    06:00 +29°C° 0 mm 3 mps 739 mmHg 27%
    07:00 +31°C° 0 mm 3 mps 739 mmHg 25%
    08:00 +33°C° 0 mm 3 mps 739 mmHg 24%
    09:00 +34°C° 0 mm 4 mps 739 mmHg 23%
    10:00 +35°C° 0 mm 5 mps 739 mmHg 21%
    11:00 +35°C° 0 mm 5 mps 739 mmHg 20%
    12:00 +36°C° 0 mm 5 mps 739 mmHg 18%
    13:00 +37°C° 0 mm 5 mps 739 mmHg 16%
    14:00 +38°C° 0 mm 6 mps 739 mmHg 16%
    15:00 +38°C° 0 mm 6 mps 738 mmHg 16%
    16:00 +38°C° 0 mm 6 mps 738 mmHg 15%
    17:00 +36°C° 0 mm 6 mps 738 mmHg 16%
    18:00 +35°C° 0 mm 5 mps 738 mmHg 17%
    19:00 +34°C° 0 mm 5 mps 738 mmHg 18%
    20:00 +33°C° 0 mm 4 mps 739 mmHg 20%
    21:00 +32°C° 0 mm 4 mps 739 mmHg 21%
    22:00 +30°C° 0 mm 3 mps 739 mmHg 22%
    23:00 +30°C° 0 mm 3 mps 739 mmHg 24%

    28 June, Thursday

    Time Temperature Precipitation Wind Pressure Humidity
    00:00 +29°C° 0 mm 3 mps 739 mmHg 25%
    01:00 +28°C° 0 mm 3 mps 738 mmHg 26%
    02:00 +28°C° 0 mm 3 mps 738 mmHg 27%
    03:00 +27°C° 0 mm 2 mps 738 mmHg 29%
    04:00 +27°C° 0 mm 2 mps 738 mmHg 30%
    05:00 +28°C° 0 mm 2 mps 739 mmHg 28%
    06:00 +30°C° 0 mm 3 mps 739 mmHg 26%
    07:00 +31°C° 0 mm 3 mps 739 mmHg 24%
    08:00 +33°C° 0 mm 4 mps 739 mmHg 22%
    09:00 +34°C° 0 mm 4 mps 739 mmHg 20%
    10:00 +35°C° 0 mm 5 mps 739 mmHg 18%
    11:00 +36°C° 0 mm 5 mps 739 mmHg 18%
    12:00 +38°C° 0 mm 6 mps 739 mmHg 17%
    13:00 +38°C° 0 mm 6 mps 738 mmHg 17%
    14:00 +38°C° 0 mm 6 mps 738 mmHg 17%
    15:00 +37°C° 0 mm 5 mps 738 mmHg 17%
    16:00 +37°C° 0 mm 5 mps 738 mmHg 18%
    17:00 +37°C° 0 mm 4 mps 738 mmHg 19%
    18:00 +36°C° 0 mm 4 mps 738 mmHg 20%
    19:00 +35°C° 0 mm 3 mps 738 mmHg 22%
    20:00 +34°C° 0 mm 2 mps 738 mmHg 23%
    21:00 +32°C° 0 mm 2 mps 738 mmHg 25%
    22:00 +31°C° 0 mm 1 mps 738 mmHg 27%
    23:00 +31°C° 0 mm 2 mps 737 mmHg 27%
    Show more